This is the latest recevied weather packets stored in our database for station/object XE2RCS-1. If no packets are shown the sender has not sent any weather packets the latest 10 day(s).
| Time | Temp. | Humidity | Pressure | Rain* | Wind** | Luminosity | Snow |
|---|---|---|---|---|---|---|---|
| 1788395150 | 25° C | 65% | 1018 hPa | 0 mm | - | - | - |
| 1788394549 | 25.56° C | 65% | 1018 hPa | 0 mm | - | - | - |
| 1788393949 | 24.44° C | 42% | 1018 hPa | 0 mm | - | - | - |
| 1788393348 | 23.89° C | 41% | 1015 hPa | 0 mm | - | - | - |
| 1788392747 | 25° C | 41% | 1015 hPa | 0 mm | - | - | - |
| 1788392147 | 26.11° C | 41% | 1015 hPa | 0 mm | - | - | - |
| 1788391546 | 27.22° C | 41% | 1016 hPa | 0 mm | - | - | - |
| 1788388845 | 26.67° C | 46% | 1015 hPa | 0 mm | - | - | - |
| 1788388245 | 26.67° C | 47% | 1015 hPa | 0 mm | - | - | - |
| 1788386910 | 23.89° C | 66% | 1017 hPa | 0 mm | - | - | - |
| 1788386308 | 23.89° C | 63% | 1015 hPa | 0 mm | - | - | - |
| 1788385706 | 25° C | 59% | 1015 hPa | 0 mm | - | - | - |
| 1788385103 | 28.33° C | 57% | 1015 hPa | 0 mm | - | - | - |
| 1788384501 | 28.33° C | 56% | 1017 hPa | 0 mm | - | - | - |
| 1788383897 | 28.33° C | 53% | 1017 hPa | 0 mm | - | - | - |
| 1788383296 | 28.89° C | 40% | 1017 hPa | 0 mm | - | - | - |
| 1788382694 | 29.44° C | 39% | 1015 hPa | 0 mm | - | - | - |
| 1788382094 | 28.89° C | 37% | 1014 hPa | 0 mm | - | - | - |
| 1788381493 | 28.33° C | 38% | 1014 hPa | 0 mm | - | - | - |
| 1788380891 | 27.78° C | 40% | 1014 hPa | 0 mm | - | - | - |
| 1788380290 | 28.33° C | 39% | 1014 hPa | 0 mm | - | - | - |
| 1788379688 | 28.89° C | 36% | 1014 hPa | 0 mm | - | - | - |
| 1788379087 | 29.44° C | 32% | 1014 hPa | 0 mm | - | - | - |
| 1788378486 | 29.44° C | 36% | 1014 hPa | 0 mm | - | - | - |
| 1788377887 | 30° C | 40% | 1014 hPa | 0 mm | - | - | - |
* Rain latest hour (hover to see other rain measurements)
** Current wind speed in m/s (hover to see current wind gust speed)